Lapse_Rate
-0.6 -0.9 -1.2 -1.3 -1.3 -1.4 -1.7 -1.9 -2.1 -2.4 -2.6 -2.8 -3.2 -3.7 -4.0 -4.6 -4.8 -3.7 -0.9 1.3 0.3 0.5 1.9 2.9 3.2 4.2 6.2 6.2 7.0 5.5 6.5 6.5 6.5 6.5 6.5 6.4 6.5 7.4 7.4 7.3 7.5 7.3 6.7 7.1 7.0
-0.6 -0.8 -1.0 -1.3 -1.6 -1.7 -2.0 -2.1 -2.1 -2.3 -2.6 -2.9 -3.1 -3.2 -3.5 -3.9 -4.3 -2.7 0.2 0.4 0.7 1.0 3.6 4.6 4.0 5.2 5.6 6.0 5.6 5.7 6.5 6.5 6.5 6.5 6.5 6.6 6.7 6.9 6.9 6.9 7.0 7.3 7.6 7.6 7.1
-0.6 -0.8 -1.0 -1.1 -1.2 -1.7 -2.1 -2.3 -2.4 -2.5 -2.7 -2.9 -3.2 -3.1 -2.9 -3.2 -0.3 1.4 2.5 0.7 1.1 2.0 5.4 6.4 6.7 6.9 6.0 5.8 5.8 5.7 6.5 6.5 6.5 6.4 6.6 6.3 6.7 7.1 6.6 6.5 6.8 6.8 7.2 7.3 7.6
-0.5 -0.8 -0.9 -1.1 -1.4 -1.5 -1.7 -2.0 -2.4 -2.7 -2.6 -2.8 -2.9 -2.7 -2.7 -2.3 6.5 6.1 2.0 1.0 1.5 2.7 5.8 6.5 6.4 6.3 6.3 6.5 5.9 6.5 6.3 6.4 6.0 6.0 6.4 6.5 6.7 6.6 6.7 6.7 6.2 6.3 7.2 7.6 7.0
-0.4 -0.7 -1.1 -1.4 -1.7 -2.1 -2.2 -2.2 -2.3 -2.6 -2.6 -2.5 -2.5 -2.3 -0.7 3.3 1.6 4.1 1.9 1.2 1.3 3.1 4.8 5.7 5.8 5.6 6.5 6.5 6.2 6.5 6.5 6.4 6.3 5.8 5.9 6.8 6.5 6.7 6.7 6.9 7.5 7.7 7.7 7.4 7.4
-0.3 -0.8 -1.2 -1.4 -1.6 -2.0 -2.3 -2.6 -2.5 -2.5 -2.4 -2.1 -1.9 -1.4 1.3 6.0 3.0 5.1 3.3 2.8 3.3 3.7 3.7 4.9 5.4 5.0 5.8 6.2 6.5 5.9 6.2 6.1 5.9 6.4 6.5 6.5 6.4 6.0 7.0 7.1 7.6 7.6 7.4 7.5 6.9
0.0 -0.5 -1.0 -1.3 -1.6 -2.0 -2.4 -2.8 -2.8 -2.4 -2.5 -2.0 -1.5 0.8 2.7 1.1 3.9 3.6 5.8 4.3 4.2 3.8 4.2 4.6 4.5 6.2 5.7 6.5 6.2 5.9 6.5 6.5 6.2 5.6 6.5 6.8 6.5 6.5 7.1 7.4 7.2 7.3 7.4 7.5 6.5
0.0 -0.3 -0.7 -1.2 -1.4 -1.8 -2.7 -2.8 -2.9 -2.6 -2.3 -1.7 -1.3 1.6 1.5 1.2 2.8 2.9 3.9 4.2 4.9 4.0 5.0 4.5 4.6 5.2 6.3 5.7 5.6 6.5 6.5 6.5 6.5 6.4 6.2 5.7 6.5 6.5 7.2 7.0 6.9 7.2 7.3 7.0 6.7
0.4 -0.0 -0.6 -1.1 -1.3 -1.6 -2.1 -2.6 -2.2 -1.2 -0.8 -1.1 -0.5 2.1 3.4 3.3 4.7 3.5 3.4 5.6 6.2 5.1 4.7 7.7 5.6 5.2 5.5 6.5 6.5 6.5 6.5 6.5 6.5 6.3 6.5 6.5 6.5 6.5 7.0 6.9 6.7 6.8 7.0 6.9 6.3
0.5 0.2 -0.4 -1.1 -1.5 -1.4 -2.0 -2.2 -1.4 -0.6 1.2 2.0 5.4 5.2 2.6 5.4 6.3 6.1 5.5 6.4 6.1 6.1 5.9 6.4 4.1 6.5 6.5 6.5 6.5 6.5 6.5 6.5 6.5 6.5 6.5 6.5 6.5 6.5 6.8 6.7 6.7 6.7 6.7 6.8 6.4
1.0 0.4 -0.5 -1.2 -1.5 -1.3 -2.4 -2.1 4.3 3.2 4.5 5.2 4.7 5.5 4.8 5.8 6.8 4.8 5.9 6.7 6.5 6.0 6.5 5.4 6.5 6.5 6.5 6.5 6.5 6.5 6.5 6.5 6.5 6.5 6.5 6.5 6.5 6.5 6.5 6.5 6.5 6.5 6.5 6.6 6.5
1.1 0.5 -0.4 -1.7 -1.7 -1.5 -2.1 3.7 5.5 6.7 4.6 5.5 5.0 5.4 4.9 5.8 6.8 4.3 5.6 6.1 5.9 6.5 6.5 6.5 6.5 6.5 6.5 6.5 6.5 6.5 6.5 6.5 6.5 6.5 6.5 6.5 6.5 6.5 6.4 6.4 6.6 6.6 6.5 6.6 6.3
1.1 0.5 -0.0 -1.9 -2.1 0.1 1.4 5.0 4.1 4.6 5.0 5.3 5.7 5.5 3.2 3.7 5.7 4.4 5.9 6.1 6.5 6.5 6.5 6.5 6.5 6.5 6.5 6.5 6.5 6.5 6.5 6.5 6.5 6.5 6.5 6.5 6.5 6.5 6.5 6.0 6.1 6.8 6.7 6.7 6.1
0.8 0.6 0.2 -1.4 0.1 -1.9 2.3 4.3 4.4 4.8 6.5 6.5 6.0 4.5 5.0 4.5 6.1 4.6 4.7 5.7 6.3 6.5 6.5 6.5 6.4 6.5 6.5 6.5 6.5 6.5 6.5 6.5 6.5 6.5 6.5 6.5 6.5 6.5 6.5 6.5 6.5 5.5 6.4 6.6 6.3
0.7 0.5 0.7 0.7 -2.2 -0.0 4.6 2.3 3.7 3.1 6.5 6.5 6.3 6.1 5.3 5.0 6.2 6.1 5.2 5.5 6.5 6.5 6.5 6.5 6.5 6.5 6.5 6.5 6.5 6.5 6.5 6.5 6.5 6.5 6.5 6.5 6.5 6.5 6.5 6.5 6.5 6.2 6.4 6.7 6.6
0.7 0.2 0.4 -0.7 -1.5 0.3 2.7 1.5 2.4 6.5 6.5 6.5 6.3 6.4 6.4 6.0 6.3 6.1 6.2 6.0 5.8 6.5 6.5 6.5 5.9 6.5 6.5 6.5 6.5 6.5 6.5 6.5 6.5 6.5 6.5 6.5 6.5 6.5 6.5 6.5 6.5 6.3 6.5 6.8 6.8
-0.2 -0.1 -0.3 0.2 0.9 3.2 1.8 2.4 6.5 6.5 6.5 6.5 6.5 6.5 6.5 6.5 6.5 6.5 6.5 6.5 6.5 6.5 6.5 6.5 6.5 6.5 6.4 6.5 6.5 6.5 6.5 6.5 6.5 6.5 6.5 6.5 6.5 6.5 6.5 6.5 6.5 6.5 6.4 6.6 6.8
-0.6 -0.7 -0.4 1.0 0.1 1.7 1.9 6.0 6.5 6.5 6.5 6.5 6.5 6.5 6.5 6.5 6.5 6.5 6.5 6.5 6.5 6.5 6.5 6.5 6.5 6.5 6.5 6.5 6.5 6.5 6.5 6.5 6.5 6.5 6.5 6.5 6.5 6.5 6.5 6.3 6.3 6.3 6.1 6.6 6.7
-0.9 -2.8 -0.9 1.6 2.6 1.7 2.8 6.5 6.5 6.5 6.5 6.5 6.5 6.5 6.5 6.5 6.5 6.5 6.5 6.5 6.5 6.5 6.5 6.5 6.5 6.5 6.5 6.5 6.5 6.5 6.5 6.5 6.5 6.5 6.5 6.5 6.5 6.5 6.5 6.5 6.4 6.1 5.2 6.0 6.6
-1.2 -2.4 -0.7 4.2 4.4 2.4 5.4 6.5 6.5 6.4 6.5 6.5 6.5 6.5 6.5 6.5 6.5 6.5 6.5 6.5 6.5 6.5 6.3 6.5 6.5 6.5 6.5 6.4 6.5 6.5 6.5 6.5 6.5 6.5 6.5 6.5 6.5 6.5 6.5 6.5 6.5 6.5 6.1 5.3 6.5
-0.8 2.4 2.8 5.4 3.2 2.0 6.5 6.5 6.5 6.3 5.9 6.5 6.5 6.5 6.5 6.5 6.5 6.5 6.5 6.5 6.5 6.5 6.4 6.5 6.5 6.5 6.5 6.5 6.5 6.5 6.5 6.5 6.5 6.5 6.5 6.5 6.5 6.5 6.5 6.5 6.5 6.5 6.2 5.0 6.5
1.2 6.3 3.4 3.6 4.4 4.4 6.5 6.5 5.3 6.2 5.4 6.4 6.4 6.5 6.5 6.5 6.5 6.5 6.5 6.5 6.7 6.6 6.5 6.5 6.5 6.5 6.5 6.5 6.5 6.5 6.5 6.5 6.5 6.5 6.5 6.5 6.5 6.5 6.5 6.5 6.3 5.8 5.9 5.9 6.2
2.4 3.1 2.7 3.2 6.5 6.5 6.0 6.5 6.2 6.5 6.5 6.5 6.5 6.5 6.5 6.5 6.5 6.5 6.5 6.6 6.6 6.5 6.5 6.5 6.5 6.5 6.5 6.5 6.5 6.5 6.5 6.5 6.5 6.5 6.5 6.5 6.5 6.5 6.5 6.5 5.0 5.1 3.8 2.4 4.0
3.0 6.5 2.9 2.4 3.6 6.3 6.5 6.5 6.5 6.8 6.4 6.3 6.5 6.5 6.5 6.5 6.5 6.5 6.5 6.5 6.7 6.7 7.0 6.3 6.5 6.5 6.5 6.5 6.5 6.5 6.5 6.5 6.5 6.5 6.5 6.5 6.5 6.5 6.5 6.5 6.3 4.2 3.6 2.6 2.1
3.7 5.4 5.8 6.5 5.9 6.3 6.4 6.5 6.5 6.5 6.6 6.2 6.5 6.5 6.5 6.5 6.5 6.5 6.5 6.5 6.6 6.7 6.4 6.5 6.5 6.5 6.5 6.5 6.5 6.5 6.5 6.5 6.5 6.5 6.5 6.5 6.5 6.5 6.5 6.5 5.9 3.6 3.8 3.4 5.1
4.5 4.8 4.0 4.3 4.5 6.3 6.5 6.5 6.5 6.5 6.5 6.5 6.5 6.5 6.5 6.5 6.5 6.5 6.5 6.5 6.5 6.5 6.5 6.5 6.5 6.5 6.5 6.5 6.5 6.5 6.5 6.5 6.5 6.5 6.5 6.5 6.5 6.5 5.2 4.9 5.3 4.5 3.3 3.3 4.5
6.0 6.3 4.3 5.0 5.8 6.5 6.5 6.5 6.5 6.5 6.2 6.0 6.4 6.5 6.5 6.5 6.0 5.3 4.9 5.2 5.8 6.5 6.5 6.5 6.5 6.5 6.5 6.5 6.5 6.5 6.5 6.5 6.5 6.5 6.5 6.5 6.5 6.5 6.5 6.5 4.9 2.9 4.6 3.5 5.1
Wind_Speed
25 26 26 26 26 26 26 25 24 24 23 23 24 22 21 20 18 3 7 13 9 18 7 9 5 6 4 4 6 4 1 6 8 6 5 14 10 12 8 17 8 8 8 20 17
25 25 26 27 28 27 26 26 25 23 23 23 22 19 18 17 4 9 15 16 18 19 6 10 8 8 4 5 5 6 4 7 11 11 11 20 21 17 8 18 8 15 16 17 15
26 27 27 28 28 29 29 28 26 24 23 22 21 19 16 12 5 8 3 22 14 20 7 5 2 5 8 3 5 6 11 9 6 2 17 16 19 11 20 9 19 23 24 19 16
28 29 29 30 30 30 30 29 28 25 23 21 19 18 17 2 4 0 4 2 17 13 4 2 2 4 5 8 6 9 14 9 7 2 12 22 16 11 18 12 23 28 28 21 19
30 30 31 32 32 32 31 30 28 25 23 19 17 15 3 1 12 4 5 9 10 9 10 7 5 5 5 4 3 9 16 15 17 14 15 17 18 21 12 23 20 23 22 21 17
30 31 31 31 33 33 33 33 29 26 23 18 13 8 1 4 6 6 7 6 7 8 8 9 7 8 5 6 5 6 15 12 9 18 12 14 13 9 18 23 23 23 22 19 18
30 31 33 34 35 36 37 35 34 27 24 17 9 3 2 17 4 7 1 4 5 7 7 9 13 2 1 7 6 5 8 10 8 8 19 17 6 16 25 25 26 22 21 18 18
32 33 34 36 37 38 40 40 37 30 22 10 7 4 8 7 10 8 4 6 7 8 7 9 8 6 4 6 8 6 2 3 3 9 13 10 9 20 24 24 23 21 19 16 15
32 34 36 37 38 38 41 44 39 14 1 11 5 4 10 11 4 9 9 7 4 6 7 10 7 9 6 2 5 2 4 4 6 10 18 5 11 20 22 22 22 20 19 16 14
32 33 35 37 39 37 43 38 26 2 5 5 4 2 6 4 3 7 3 7 5 5 4 5 3 3 2 4 7 5 4 2 4 4 3 11 14 23 22 22 23 20 18 17 16
31 33 35 38 40 40 18 6 7 5 5 9 6 6 13 7 5 9 4 5 4 3 7 4 3 6 9 5 5 5 3 3 5 5 6 12 19 23 21 19 19 18 18 17 17
32 33 35 39 42 40 2 5 4 6 12 10 17 19 24 5 8 16 5 2 4 7 3 2 7 8 7 6 7 9 6 6 7 3 5 12 7 7 15 17 22 20 19 19 17
31 32 35 39 46 6 4 5 8 8 4 8 6 6 8 12 11 14 5 3 4 6 6 7 8 9 9 10 10 9 7 4 6 2 7 7 5 2 3 4 8 18 21 18 19
32 32 33 38 6 6 6 8 16 2 4 8 5 8 5 6 4 12 12 8 5 10 6 6 11 9 15 14 9 9 7 9 8 4 5 4 5 5 3 6 3 8 16 20 19
33 31 29 25 5 4 7 13 14 4 3 4 3 1 4 9 1 4 7 6 7 7 7 9 10 13 13 18 13 9 9 9 8 5 6 1 4 6 4 7 10 11 16 20 22
32 32 32 6 2 11 15 14 3 5 5 5 4 8 7 5 3 2 4 3 4 6 5 8 4 9 13 16 13 6 5 1 3 5 3 8 7 6 6 15 17 13 18 24 22
35 36 25 5 5 3 7 4 4 3 7 9 7 9 8 7 8 6 4 8 6 5 5 2 13 5 5 8 10 5 6 2 2 1 7 10 4 7 14 14 21 19 21 25 22
38 38 8 10 17 4 4 5 2 3 4 6 7 9 6 14 8 8 7 3 3 4 1 6 7 8 5 9 8 8 10 6 7 4 6 5 6 10 24 23 19 18 17 20 21
35 4 5 5 17 4 5 3 4 4 6 8 6 7 7 14 10 12 6 4 7 2 5 5 8 6 6 7 9 4 3 10 6 2 3 4 4 6 6 21 14 19 17 22 24
6 5 4 10 8 4 5 4 3 5 5 6 6 6 7 10 9 11 5 3 12 14 14 6 5 7 11 2 6 9 6 2 3 6 5 4 3 5 6 18 21 21 19 20 24
2 4 4 4 4 5 3 6 4 5 8 6 5 4 6 6 5 6 6 6 22 16 17 4 4 16 5 6 5 1 3 2 4 6 6 2 5 7 19 22 25 22 16 11 23
3 2 4 5 3 0 2 2 7 6 6 8 6 7 4 7 5 5 4 8 17 17 10 5 1 4 9 6 4 5 7 8 6 5 2 5 7 8 13 15 15 10 13 22 21
3 3 4 5 3 3 5 4 5 7 6 4 5 5 4 4 5 4 4 15 15 16 10 8 4 5 8 5 7 3 3 4 4 5 7 6 6 2 4 8 16 14 10 8 4
3 4 4 4 1 3 5 4 6 6 3 3 3 2 4 4 2 7 10 8 17 15 20 9 3 4 5 4 4 6 13 7 7 5 6 6 5 1 3 8 6 8 11 11 9
1 3 1 4 5 8 4 5 5 5 3 3 1 2 2 3 5 5 5 9 11 9 11 6 4 2 8 10 8 10 12 13 3 10 10 8 8 9 8 9 9 9 7 8 15
2 3 4 4 4 6 6 5 5 13 3 4 4 4 1 4 6 13 5 4 5 5 8 7 4 0 4 4 6 11 11 9 9 7 4 8 5 7 7 4 8 3 10 7 5
3 3 3 4 6 3 3 6 10 7 5 6 1 3 3 5 0 5 6 5 7 6 6 5 5 4 3 9 9 4 6 4 5 6 9 8 9 4 3 3 8 6 7 8 4
Wind_Direction
354 351 348 345 341 338 336 333 332 330 326 322 322 321 320 320 317 178 245 222 186 178 138 138 198 205 204 228 204 136 84 235 256 252 186 146 136 154 110 135 165 196 146 156 156
352 350 346 343 340 336 333 331 329 328 325 323 322 321 320 323 288 241 242 219 204 159 180 183 182 176 211 223 197 160 175 252 221 203 161 155 151 143 128 153 103 109 128 150 157
349 347 344 342 339 335 331 329 327 326 325 323 323 322 321 320 305 247 268 220 191 171 199 189 247 178 220 301 214 209 226 250 271 155 151 144 145 134 141 161 154 145 155 162 162
347 344 342 339 337 334 330 326 324 322 322 321 322 318 317 255 292 215 51 124 186 174 198 251 250 186 216 210 255 255 261 218 271 166 166 154 153 149 169 172 160 156 160 159 164
344 342 340 336 334 331 328 324 321 317 315 315 318 321 346 310 249 258 117 97 142 163 190 198 209 179 219 228 262 248 271 281 282 199 177 142 160 162 164 142 153 153 160 165 164
342 339 336 334 332 330 326 323 318 312 306 301 305 312 301 260 254 246 148 148 142 163 181 182 220 202 289 252 192 276 292 292 263 177 147 129 130 106 150 146 155 162 166 173 171
341 338 336 335 333 331 326 321 316 308 297 289 275 240 247 241 244 324 103 216 190 170 171 207 224 337 96 301 282 276 311 326 198 167 138 125 91 146 154 156 160 166 171 175 172
340 337 335 334 333 331 326 321 312 311 299 269 215 196 244 254 251 272 183 268 228 210 199 197 200 226 182 277 333 348 349 320 220 170 147 107 174 151 158 157 164 168 171 177 183
337 335 333 332 330 330 324 317 307 318 141 135 128 166 267 297 244 242 182 222 190 215 216 236 148 204 255 220 357 5 247 252 321 193 156 126 135 161 166 161 165 169 172 180 189
336 333 331 330 329 330 324 310 294 107 136 189 250 12 270 269 4 299 238 202 207 243 292 190 112 171 30 127 209 205 225 327 239 175 129 126 147 168 172 167 169 175 179 184 192
333 331 332 331 327 328 335 351 15 349 51 223 222 257 289 314 332 317 344 328 169 129 202 244 137 207 226 174 231 275 275 338 295 181 102 156 152 171 175 175 172 179 184 191 196
331 333 335 330 326 323 333 14 305 262 300 255 244 249 254 1 308 294 104 75 160 207 153 254 212 214 225 247 234 250 263 271 315 53 89 149 130 138 178 186 178 184 188 192 194
330 335 336 332 323 346 297 256 309 17 295 299 238 225 228 160 216 261 137 136 238 201 180 189 224 199 222 238 242 246 213 203 211 112 66 89 1 31 163 110 202 197 192 191 191
332 335 335 339 11 327 297 295 338 34 17 278 246 258 174 135 234 219 193 156 222 202 186 223 224 205 212 236 199 245 209 226 240 138 200 173 220 255 277 290 182 240 201 197 195
331 329 329 329 277 314 257 331 324 61 352 323 319 264 148 164 165 250 156 110 204 201 143 225 174 205 219 225 217 249 191 214 210 139 121 15 103 262 286 256 246 232 214 206 201
329 324 327 331 231 242 299 305 39 49 259 325 22 331 8 297 258 336 144 113 179 227 253 212 237 194 215 232 238 220 241 292 163 115 146 210 163 245 215 226 226 239 228 209 203
324 322 318 260 236 331 349 22 57 159 329 1 341 329 335 310 30 349 161 156 178 141 240 285 250 233 205 213 247 188 96 259 334 154 210 184 178 225 226 224 223 222 211 202 204
324 317 271 220 249 314 25 48 193 291 22 348 323 316 46 17 10 14 10 344 318 119 357 185 261 213 217 181 201 199 168 161 188 174 205 217 219 238 203 220 224 215 215 201 203
327 324 292 257 230 103 63 53 225 359 338 343 349 30 342 1 358 9 14 299 23 188 185 191 245 269 224 208 156 235 143 192 179 165 96 208 282 296 212 213 195 203 197 195 200
325 338 279 258 150 73 72 255 282 345 18 26 41 39 1 347 10 7 344 357 354 10 4 285 251 222 263 267 238 169 188 129 344 180 246 259 218 233 187 198 199 218 196 200 199
27 354 265 296 78 55 155 234 291 2 46 40 19 357 32 1 316 334 315 328 17 340 341 306 220 255 139 181 227 1 185 114 134 151 181 221 268 215 195 197 200 217 203 195 200
15 357 277 36 45 88 169 283 3 354 33 39 71 48 48 2 347 333 290 344 353 359 330 309 283 276 227 224 191 151 229 176 177 259 208 162 259 288 167 174 201 238 196 200 193
340 274 302 100 41 329 314 4 3 14 48 52 37 44 29 13 344 303 335 344 347 356 4 325 337 350 343 356 16 12 332 203 148 113 207 147 259 288 315 212 184 161 224 241 200
2 350 328 32 78 34 6 348 353 28 91 123 154 49 22 339 218 291 308 312 338 337 341 321 241 151 230 242 220 289 308 308 192 140 169 213 204 276 196 145 191 164 205 239 226
65 293 305 331 339 331 340 356 355 342 12 157 206 193 131 283 315 283 328 331 334 327 353 28 245 265 275 262 267 270 285 292 250 226 183 203 195 238 214 172 180 125 114 190 237
60 33 352 294 307 341 0 10 7 342 280 259 166 241 206 217 209 286 327 29 278 324 4 349 273 120 286 271 284 273 274 276 281 209 170 150 227 250 192 251 94 84 120 88 40
338 346 93 292 333 26 344 354 340 350 315 37 136 118 298 261 209 253 207 227 260 294 337 296 344 355 308 314 324 324 300 259 285 249 173 177 211 179 55 222 104 44 73 48 124